{"data":{"norad_id":65815,"intl_designator":"2025-219A","name":"FENGYUN 3H","alt_names":[],"object_type":"PAYLOAD","status":"ACTIVE","operator":null,"country":"PRC","launch_date":"2025-09-26","launch_site_code":"JSC","launch_vehicle":null,"mission":null,"orbit_class":"UNKNOWN","rcs_meters":null,"size_class":null,"mass_kg":null,"dimensions":null,"purposes":["earth_obs"],"wikipedia_slug":null,"has_3d_model":false,"image_url":null,"decayed_at":null,"tle_current":{"epoch":"2026-09-20T02:23:19.440384Z","epoch_age_seconds":49039,"freshness":"FRESH","line1":"1 65815U 25219A   26263.09953056  .00000028  00000+0  33758-4 0  9999","line2":"2 65815  98.6822 202.0416 0001431  98.1456 261.9883 14.19933488 50854","mean_motion":14.19933488,"eccentricity":0.0001431,"inclination_deg":98.6822,"raan_deg":202.0416,"arg_perigee_deg":98.1456,"mean_anomaly_deg":261.9883,"bstar":3.3758e-5,"rev_number":5085,"period_min":101.41320084142,"perigee_km":824.54688736433,"apogee_km":826.60859052261,"semimajor_km":7203.7147389435,"source":"CELESTRAK","updated_at":"2026-09-20T09:00:33.257881Z"}}}